Wind_Speed
8 11 15 14 10 13 14 12 17 21 21 7 8 18 14 15 23 25 17 19 27 34 44 47 56 43 41 41 41 37 41 40 32 30 35 41 43 46 49 48 50 52 53 55
14 19 20 23 18 15 17 15 17 20 19 12 12 14 25 33 22 17 15 24 42 50 54 55 60 42 40 40 38 36 39 35 38 42 45 45 47 51 51 50 53 52 51 50
13 14 18 21 19 21 18 15 20 23 7 4 6 18 28 34 12 11 14 32 42 46 54 62 48 42 43 40 37 38 36 38 41 45 47 49 51 50 49 51 54 53 53 51
16 18 13 19 20 14 15 19 21 17 8 6 11 19 19 25 20 32 34 40 50 55 57 54 48 49 48 44 43 44 46 48 50 52 53 53 51 48 47 50 49 46 51 50
23 22 18 24 22 19 21 18 11 14 10 14 16 18 15 18 17 27 25 38 39 39 59 51 51 51 47 47 50 54 57 59 60 58 56 53 51 48 46 46 44 43 48 48
25 22 25 24 22 21 20 17 16 14 16 16 23 19 16 9 4 11 34 41 39 51 54 54 50 49 49 52 55 59 61 62 59 53 47 44 41 43 43 42 41 46 47 49
19 21 23 25 22 21 15 19 23 21 21 27 21 17 14 7 5 19 28 28 46 51 52 53 50 50 49 52 58 59 61 56 48 48 46 36 43 48 41 39 41 42 47 46
32 32 29 31 27 26 25 25 24 28 26 25 23 21 24 19 20 21 23 42 45 45 48 50 47 50 52 55 58 58 57 50 47 43 40 40 51 50 41 37 41 43 47 48
36 34 32 31 26 26 24 23 26 28 24 22 16 15 28 19 20 33 43 40 36 47 47 47 46 48 54 55 54 54 51 44 40 21 41 45 51 43 38 43 50 49 48 46
35 31 28 23 27 26 25 28 27 28 27 20 20 22 28 27 26 31 40 28 49 53 47 47 53 51 53 55 54 53 51 47 35 37 39 38 38 42 41 42 53 48 44 42
27 28 23 27 25 27 26 26 28 27 25 23 19 25 22 25 29 33 23 50 53 50 43 46 52 53 49 50 53 52 48 42 40 33 36 30 24 37 38 41 45 41 41 41
33 30 26 28 31 34 33 23 18 18 16 25 24 23 26 24 31 40 46 47 49 46 46 49 50 52 51 47 49 50 50 46 38 34 35 30 32 41 40 40 43 44 44 41
31 31 32 28 29 32 31 25 25 24 28 34 33 27 30 34 37 41 44 50 49 43 47 52 51 53 58 57 50 51 50 48 48 44 37 33 42 42 43 44 42 44 41 41
25 26 26 26 29 30 32 32 32 34 37 42 38 40 35 36 41 44 47 47 46 47 48 48 51 51 56 60 61 59 54 47 48 45 43 42 42 44 46 47 44 42 40 44
22 20 18 20 21 29 35 32 32 35 40 44 44 37 33 38 44 45 48 45 46 50 52 52 52 56 63 65 67 60 58 55 44 41 42 44 45 47 49 50 46 42 44 45
21 23 20 20 20 19 20 21 24 25 11 34 33 32 34 45 49 50 49 49 52 53 58 62 62 63 62 66 60 56 67 48 35 46 48 45 45 51 56 45 39 41 43 45
15 16 19 23 22 16 14 14 21 30 32 37 36 33 43 53 52 47 45 47 52 54 57 61 65 68 65 56 45 56 51 47 39 50 56 42 45 61 51 39 40 44 42 43
27 29 28 27 26 22 18 24 32 33 37 37 37 45 48 47 50 47 47 48 51 54 53 59 64 69 72 43 38 53 33 53 40 57 58 40 46 62 58 44 48 48 48 48
30 31 33 36 32 27 24 24 23 26 32 39 50 46 46 48 51 50 51 53 56 58 56 57 63 61 31 56 45 35 38 33 38 64 41 42 55 62 64 60 47 47 53 47
33 34 37 24 36 33 27 33 35 34 47 51 46 46 45 47 47 49 51 53 53 56 54 63 63 52 55 61 49 43 40 40 47 48 40 55 63 56 71 51 49 45 49 54
20 29 27 36 39 28 29 34 40 44 48 46 52 50 47 48 49 50 51 51 52 58 64 55 53 52 55 52 55 47 42 41 44 33 51 55 64 74 75 60 57 54 44 44
31 33 41 38 32 27 28 32 42 39 43 53 53 50 48 49 50 53 54 58 59 61 59 48 48 54 39 59 55 47 47 51 43 42 47 51 55 59 58 51 47 47 45 49
25 29 32 25 28 29 28 30 36 47 51 45 46 47 46 48 51 55 56 57 53 49 49 49 48 47 51 48 43 51 54 51 44 43 36 36 36 38 45 49 46 48 52 54
23 25 29 28 33 31 29 30 37 41 44 47 47 47 49 50 48 52 51 48 47 47 48 49 51 49 41 55 51 56 52 46 43 42 38 36 35 33 35 39 42 43 45 48
24 28 25 32 43 39 47 49 44 42 45 46 48 49 46 49 48 47 48 48 47 48 48 50 50 52 55 58 59 59 50 45 44 41 40 39 39 40 40 42 44 46 49 52
29 31 32 30 42 48 48 50 48 48 49 47 51 52 49 50 49 48 48 48 50 51 51 52 55 57 57 58 58 60 53 46 41 42 42 43 43 43 46 49 52 54 55 56
Wind_Direction
291 302 318 311 318 316 316 339 341 349 335 328 349 330 344 267 306 311 352 344 327 339 328 332 329 321 323 321 320 313 320 318 319 323 317 315 314 317 316 314 317 319 318 318
290 301 308 311 304 297 299 314 318 345 339 343 310 268 316 319 327 293 303 277 298 312 314 318 323 322 320 320 323 319 317 315 312 316 318 318 318 319 317 318 320 317 316 320
247 318 307 312 304 297 289 296 325 339 350 359 283 270 290 309 337 276 276 305 304 298 313 317 325 324 322 321 324 325 321 318 315 316 316 317 319 317 316 314 317 322 324 326
290 324 309 320 317 305 306 312 319 330 318 301 314 278 294 310 292 293 276 291 302 303 310 327 329 327 327 328 326 325 324 321 319 319 317 316 314 312 313 317 320 320 324 325
255 269 276 298 306 309 320 314 327 321 319 292 308 303 319 331 314 320 303 309 314 315 318 330 330 327 325 325 328 329 326 323 321 318 316 313 312 311 311 314 317 320 325 326
273 263 268 285 302 298 305 304 321 331 334 313 305 314 327 18 133 237 305 309 313 321 326 327 326 325 329 330 331 328 326 326 325 323 322 321 324 321 319 317 321 325 327 328
263 260 277 289 294 291 305 316 320 317 325 325 313 316 324 324 229 271 292 273 313 316 322 323 327 328 330 330 329 328 329 333 334 331 327 337 345 340 334 330 329 330 329 332
262 274 279 275 287 299 308 312 304 304 309 313 319 318 326 326 286 274 276 301 307 317 321 324 330 328 330 333 331 334 337 342 346 351 344 339 338 339 337 340 335 336 336 339
274 273 278 282 293 295 297 297 298 295 303 297 307 260 308 330 343 319 303 308 311 321 327 324 324 330 335 332 333 339 344 347 354 338 340 332 327 336 333 336 335 339 340 339
276 275 282 286 284 288 295 286 292 294 293 296 295 274 319 317 307 294 312 295 310 322 326 324 331 336 334 334 337 342 348 344 343 330 337 337 335 328 328 326 325 333 337 344
267 270 277 282 278 284 281 292 295 295 285 298 304 277 295 319 310 304 286 296 314 317 323 331 330 330 336 336 336 337 341 345 340 330 329 339 296 323 323 311 325 330 328 339
267 271 274 279 281 283 283 280 302 290 279 307 311 293 298 291 290 295 299 310 315 313 328 331 329 333 334 336 334 334 335 336 335 332 327 318 299 317 312 311 323 324 326 331
262 262 269 270 275 278 284 270 273 275 268 286 304 295 282 284 292 296 302 312 319 325 327 325 332 334 333 330 329 332 333 333 332 328 327 313 310 315 315 317 319 320 319 324
269 270 273 276 278 279 278 282 285 285 277 279 295 290 294 300 309 316 317 320 324 325 325 325 328 329 329 332 335 334 331 330 326 326 324 324 325 321 321 316 312 318 320 325
265 271 277 279 284 275 272 273 276 281 287 289 291 292 297 310 319 315 317 320 322 322 319 322 326 330 334 338 337 333 331 329 328 326 323 322 322 322 323 318 314 321 324 321
274 277 269 286 290 306 290 284 292 292 287 298 296 287 282 300 309 315 321 321 321 322 324 327 330 333 337 344 336 344 340 333 333 345 331 324 326 324 324 319 328 329 317 319
267 269 277 282 280 301 290 281 289 297 290 295 290 281 289 297 302 311 315 317 321 323 326 327 328 332 334 341 343 345 340 324 317 336 335 314 323 330 326 316 320 305 305 315
264 274 288 285 286 283 272 268 287 293 275 278 287 285 291 302 308 314 315 317 318 318 325 324 328 330 334 341 333 339 328 318 315 336 326 300 310 321 319 311 295 299 299 306
276 279 283 284 282 284 292 291 295 289 264 269 295 302 307 312 314 317 319 320 324 323 324 324 328 330 324 328 324 323 309 308 301 323 311 282 301 310 315 318 311 311 311 310
266 273 281 289 293 276 273 269 278 266 277 291 296 299 307 310 311 313 315 318 320 318 319 324 327 328 327 331 331 324 321 295 294 313 272 283 293 304 310 308 298 302 307 313
270 261 263 297 301 299 275 273 277 279 281 281 291 299 304 305 308 311 312 316 317 316 317 327 326 329 325 331 335 324 319 309 306 272 274 284 289 292 300 300 298 312 316 314
260 262 273 286 293 299 287 287 292 280 279 292 299 301 304 307 310 308 310 312 316 317 320 326 326 330 327 329 329 320 320 318 312 307 297 290 288 288 297 309 312 309 308 308
255 264 276 291 300 294 296 292 283 287 295 295 300 302 303 306 305 307 312 317 320 320 322 324 323 325 323 327 316 317 321 319 317 318 321 328 327 325 321 311 319 309 307 314
276 294 270 296 318 296 280 300 293 293 301 305 306 305 306 306 310 313 317 319 320 321 323 323 325 329 324 327 326 325 324 320 317 322 325 328 328 327 325 324 323 319 319 322
274 277 278 307 287 296 295 301 300 299 299 300 301 303 309 309 310 313 315 316 320 322 322 323 327 329 327 329 331 333 327 317 312 313 316 319 321 321 320 320 321 320 321 323
271 274 279 282 287 291 298 301 301 301 300 304 300 302 306 306 309 311 314 316 319 320 321 324 328 328 330 330 331 335 331 321 311 311 310 312 314 316 318 320 320 321 323 323
Height
10961 10960 10960 10960 10957 10955 10953 10951 10948 10946 10942 10943 10939 10940 10937 10937 10938 10935 10928 10906 10902 10901 10903 10900 10889 10885 10876 10869 10863 10858 10851 10845 10839 10833 10827 10821 10814 10806 10799 10791 10784 10775 10765 10758
10960 10959 10958 10956 10956 10955 10952 10950 10945 10946 10942 10938 10938 10936 10932 10932 10929 10924 10925 10913 10896 10899 10895 10893 10885 10880 10874 10866 10859 10853 10846 10840 10834 10827 10819 10811 10804 10797 10788 10781 10773 10767 10760 10751
10958 10958 10958 10955 10953 10950 10950 10948 10945 10945 10942 10937 10935 10935 10930 10926 10926 10919 10918 10912 10904 10898 10893 10888 10880 10874 10868 10862 10855 10848 10841 10833 10825 10816 10808 10800 10793 10786 10778 10772 10763 10754 10745 10739
10956 10955 10954 10953 10951 10950 10948 10946 10943 10942 10941 10937 10937 10933 10932 10924 10921 10915 10912 10907 10899 10893 10890 10882 10875 10868 10861 10855 10849 10840 10831 10822 10813 10804 10796 10788 10781 10774 10767 10760 10752 10747 10741 10732
10950 10949 10949 10948 10948 10946 10945 10941 10940 10940 10938 10936 10934 10930 10930 10925 10918 10914 10905 10903 10895 10889 10883 10878 10868 10863 10858 10850 10839 10829 10818 10809 10800 10791 10782 10775 10769 10762 10755 10750 10744 10739 10734 10727
10945 10944 10944 10944 10944 10942 10941 10938 10937 10937 10935 10932 10927 10926 10925 10924 10915 10908 10904 10895 10894 10886 10877 10871 10867 10860 10851 10841 10830 10820 10810 10801 10790 10780 10773 10766 10760 10754 10747 10740 10734 10728 10722 10718
10941 10940 10942 10942 10941 10938 10939 10937 10932 10933 10932 10928 10925 10924 10921 10920 10915 10911 10897 10894 10889 10880 10873 10866 10861 10856 10852 10838 10824 10814 10806 10796 10785 10774 10766 10762 10755 10748 10742 10735 10730 10723 10715 10709
10936 10937 10938 10937 10937 10935 10936 10934 10929 10927 10928 10924 10919 10917 10917 10916 10915 10911 10902 10893 10887 10879 10870 10858 10859 10851 10842 10831 10818 10809 10801 10789 10778 10767 10761 10761 10752 10743 10738 10732 10726 10718 10711 10703
10930 10932 10931 10932 10933 10933 10930 10929 10925 10919 10922 10920 10919 10917 10912 10911 10912 10897 10897 10889 10880 10871 10867 10857 10856 10849 10836 10826 10814 10807 10799 10787 10775 10764 10757 10754 10751 10740 10732 10725 10720 10713 10707 10700
10925 10925 10925 10929 10926 10924 10922 10918 10918 10915 10912 10913 10913 10911 10908 10906 10905 10898 10888 10882 10874 10867 10863 10854 10845 10843 10833 10815 10807 10801 10796 10783 10772 10764 10756 10752 10744 10736 10727 10723 10718 10710 10705 10697
10920 10920 10922 10920 10916 10915 10917 10913 10911 10909 10907 10907 10908 10903 10901 10899 10893 10888 10880 10876 10870 10862 10858 10851 10841 10833 10831 10817 10803 10796 10793 10788 10777 10766 10758 10748 10737 10730 10725 10721 10714 10708 10702 10694
10913 10913 10916 10913 10910 10906 10910 10909 10906 10904 10902 10903 10902 10899 10894 10894 10888 10881 10876 10872 10868 10855 10849 10844 10836 10825 10817 10814 10803 10791 10784 10781 10777 10769 10760 10745 10737 10729 10723 10716 10709 10702 10695 10687
10904 10906 10906 10906 10903 10900 10900 10902 10902 10900 10897 10896 10895 10895 10889 10885 10882 10877 10872 10861 10857 10849 10843 10834 10828 10818 10808 10804 10798 10788 10776 10767 10763 10759 10755 10746 10734 10726 10719 10711 10703 10697 10690 10683
10896 10899 10900 10899 10898 10896 10894 10893 10894 10893 10891 10888 10889 10886 10882 10877 10871 10864 10858 10853 10847 10842 10836 10828 10820 10816 10810 10799 10788 10778 10770 10764 10754 10745 10739 10734 10728 10720 10713 10706 10700 10691 10683 10676
10892 10894 10896 10896 10894 10887 10886 10888 10886 10885 10883 10878 10881 10877 10876 10870 10865 10861 10851 10849 10843 10835 10827 10822 10818 10812 10801 10790 10779 10770 10760 10749 10743 10736 10729 10723 10718 10712 10706 10698 10690 10684 10676 10668
10888 10890 10891 10890 10886 10884 10883 10885 10884 10883 10882 10871 10871 10872 10870 10865 10864 10856 10847 10841 10835 10827 10816 10809 10804 10795 10787 10779 10769 10760 10748 10742 10734 10729 10720 10713 10709 10701 10693 10688 10681 10675 10668 10659
10886 10886 10885 10884 10882 10882 10883 10881 10880 10878 10875 10871 10868 10866 10863 10858 10859 10853 10847 10840 10830 10821 10814 10802 10791 10781 10774 10764 10761 10755 10744 10739 10730 10722 10709 10701 10695 10691 10685 10681 10674 10662 10657 10652
10881 10882 10881 10878 10879 10879 10879 10878 10875 10872 10865 10862 10862 10859 10857 10851 10846 10841 10838 10833 10825 10818 10812 10797 10785 10776 10766 10759 10751 10748 10729 10728 10718 10710 10694 10685 10680 10677 10676 10669 10661 10655 10651 10645
10877 10874 10872 10872 10874 10876 10870 10864 10865 10865 10856 10856 10850 10848 10845 10840 10833 10828 10824 10821 10813 10804 10799 10787 10780 10769 10761 10757 10749 10748 10741 10730 10704 10701 10689 10672 10669 10666 10663 10656 10653 10648 10640 10633
10869 10865 10865 10866 10866 10873 10870 10866 10860 10862 10853 10850 10846 10842 10838 10833 10829 10823 10819 10816 10808 10796 10787 10780 10771 10762 10750 10742 10734 10732 10726 10720 10709 10706 10684 10674 10664 10659 10656 10649 10640 10635 10628 10623
10860 10858 10857 10854 10855 10858 10858 10859 10856 10853 10850 10846 10843 10836 10831 10825 10820 10816 10813 10808 10801 10785 10779 10777 10764 10756 10746 10736 10726 10720 10715 10709 10702 10698 10683 10669 10662 10655 10646 10640 10633 10629 10620 10614
10852 10852 10850 10851 10849 10847 10847 10846 10842 10839 10840 10839 10832 10826 10820 10814 10809 10805 10803 10797 10791 10779 10768 10767 10760 10749 10735 10729 10719 10713 10706 10699 10690 10683 10675 10664 10652 10645 10641 10633 10627 10620 10614 10606
10850 10849 10845 10846 10845 10844 10841 10838 10833 10828 10828 10828 10821 10815 10810 10804 10800 10798 10793 10787 10779 10770 10761 10755 10748 10743 10735 10727 10716 10707 10695 10685 10677 10669 10660 10652 10644 10637 10630 10625 10618 10611 10604 10596
10841 10839 10836 10837 10835 10835 10837 10835 10831 10826 10819 10814 10810 10805 10801 10796 10792 10788 10783 10777 10770 10762 10755 10747 10736 10728 10720 10713 10704 10692 10680 10672 10666 10659 10652 10644 10638 10631 10625 10618 10610 10604 10596 10586
10833 10830 10831 10827 10824 10820 10824 10823 10821 10816 10811 10809 10803 10797 10794 10787 10783 10780 10774 10767 10760 10753 10745 10737 10731 10723 10712 10701 10689 10678 10669 10663 10659 10653 10646 10639 10632 10625 10619 10611 10604 10595 10585 10574
10828 10829 10829 10828 10817 10813 10816 10812 10809 10805 10799 10798 10791 10787 10785 10779 10775 10770 10764 10757 10750 10742 10734 10727 10719 10709 10701 10692 10682 10673 10664 10656 10650 10645 10638 10632 10625 10618 10609 10599 10590 10581 10571 10561